DW6665 Weather Reports


Display with metric or nautical units.
time (UTC)temp
F
wind
direction
speed
MPH
gust
MPH
rain 1hr
in
rain 24hr
in
rain mn
in
humidity
%
barometer
mb
20260505123334 54 234 3.0 7.0 0.00 0.00 0.00 87 1014.1
20260505120335 54 243 4.0 8.0 0.00 0.00 0.00 88 1013.8
20260505113339 54 209 4.0 12.0 0.00 0.00 0.00 88 1013.7
20260505110333 54 207 4.0 11.0 0.00 0.00 0.00 88 1013.6
20260505100330 53 221 4.0 11.0 0.00 0.00 0.00 89 1013.1
20260505093335 53 140 4.0 8.0 0.00 0.00 0.00 90 1012.9
20260505090348 53 240 6.0 11.0 0.00 0.00 0.00 90 1012.7
20260505083331 53 206 5.0 11.0 0.00 0.00 0.00 89 1012.5
20260505080335 54 214 4.0 9.0 0.00 0.00 0.00 88 1012.4
20260505073345 54 214 4.0 13.0 0.00 0.00 0.00 88 1012.1
20260505070330 54 194 6.0 11.0 0.00 0.00 0.00 87 1011.8
20260505063331 55 297 6.0 11.0 0.00 0.00 0.00 85 1011.6
20260505060333 56 183 5.0 11.0 0.00 0.00 0.00 84 1011.2
20260505053337 57 250 5.0 10.0 0.00 0.00 0.00 82 1010.8
20260505050324 59 213 3.0 11.0 0.00 0.00 0.00 79 1010.6
20260505040324 63 234 6.0 11.0 0.00 0.00 0.00 72 1009.7
20260505033336 65 226 7.0 11.0 0.00 0.00 0.00 67 1009.3
20260505030348 69 228 5.0 11.0 0.00 0.00 0.00 61 1009.0
20260505023332 73 235 5.0 9.0 0.00 0.00 0.00 54 1008.7
20260505020335 74 270 5.0 11.0 0.00 0.00 0.00 51 1008.8
20260505013352 75 243 6.0 12.0 0.00 0.00 0.00 51 1008.8
20260505010334 77 213 4.0 9.0 0.00 0.00 0.00 49 1008.9
20260505003347 77 175 4.0 9.0 0.00 0.00 0.00 47 1009.0
20260505000332 77 224 5.0 9.0 0.00 0.00 0.00 44 1009.2
20260504233333 78 272 4.0 9.0 0.00 0.00 0.00 44 1009.2
20260504230333 77 268 5.0 11.0 0.00 0.00 0.00 41 1009.2
20260504223329 76 248 3.0 8.0 0.00 0.00 0.00 47 1009.9
20260504220331 75 301 4.0 8.0 0.00 0.00 0.00 47 1010.0
20260504213359 74 255 4.0 12.0 0.00 0.00 0.00 49 1010.3
20260504210341 73 227 6.0 10.0 0.00 0.00 0.00 52 1010.4
20260504203331 72 282 6.0 13.0 0.00 0.00 0.00 55 1010.6
20260504200333 72 250 6.0 10.0 0.00 0.00 0.00 54 1010.5
20260504193404 71 266 5.0 10.0 0.00 0.00 0.00 55 1010.7
20260504190342 72 240 3.0 8.0 0.00 0.00 0.00 56 1010.9
20260504183355 71 277 3.0 7.0 0.00 0.00 0.00 55 1010.9
20260504180347 70 256 3.0 5.0 0.00 0.00 0.00 56 1011.1
20260504173350 68 251 4.0 6.0 0.00 0.00 0.00 53 1011.0
20260504170329 67 254 3.0 4.0 0.00 0.00 0.00 54 1010.9
20260504160412 66 284 1.0 4.0 0.00 0.00 0.00 58 1010.6
20260504150347 60 281 1.0 3.0 0.00 0.00 0.00 69 1010.3
20260504140401 59 322 0.0 1.0 0.00 0.00 0.00 66 1009.8
20260504130328 56 339 0.0 0.0 0.00 0.00 0.00 74 1009.3